RH
33 35 33 29 28 27 22 20 21 22 17 13 12 12 13 13 13 15 14 12 11 12 13 13 14 14 13 12 13 21 26 32 38 40 39 38 41 43 43 42 42 42 41
37 41 44 40 31 29 22 23 21 22 20 16 14 14 15 15 15 16 15 14 13 14 15 15 14 14 14 14 19 21 25 33 39 41 42 41 41 43 46 46 45 44 44
44 45 51 48 42 37 21 19 22 24 23 20 16 16 18 18 19 19 17 16 16 17 17 16 16 16 16 20 20 21 28 35 38 41 43 44 44 44 46 48 50 51 50
48 42 43 47 44 39 18 17 20 25 27 24 18 19 22 23 23 22 19 18 20 20 18 17 16 17 22 22 22 27 33 37 41 45 48 50 51 51 51 52 54 55 55
51 46 48 51 45 19 18 18 21 29 30 26 21 23 25 25 25 24 21 21 22 20 19 18 18 24 26 25 28 30 33 41 50 54 57 58 59 60 62 60 61 64 66
51 53 51 40 25 20 18 22 21 27 31 26 24 26 28 27 29 25 23 25 25 22 20 21 26 30 28 29 29 34 44 55 61 64 66 68 69 70 71 71 68 66 63
46 44 28 22 20 19 22 24 21 28 30 26 27 30 30 32 29 26 27 28 26 23 24 31 32 31 31 32 38 49 61 68 71 73 74 75 76 76 74 72 69 65 58
25 25 24 24 23 23 26 23 23 27 29 29 31 33 33 33 29 29 30 28 25 28 35 35 34 35 38 45 56 67 73 73 71 70 69 68 71 73 79 82 81 69 65
23 24 24 22 24 28 26 22 25 29 31 33 35 35 36 32 32 31 28 28 33 35 34 37 40 43 49 58 69 70 69 67 67 66 64 62 64 70 79 84 87 81 64
23 20 22 24 23 20 19 21 25 30 34 35 37 37 34 34 31 31 35 38 38 41 44 46 50 56 64 69 69 71 74 71 64 58 57 59 63 68 71 65 56 46 42
22 20 19 18 17 18 22 26 29 33 37 40 37 36 35 34 38 41 42 45 47 50 53 58 66 70 72 77 80 77 68 59 54 53 50 47 44 41 40 37 34 31 25
18 19 19 20 22 25 28 32 35 39 39 37 37 37 39 43 45 48 51 52 55 60 66 72 76 80 84 84 75 62 55 49 41 36 33 28 22 17 13 11 10 10 12
21 22 24 26 29 31 33 36 39 38 36 37 41 44 47 50 54 57 58 60 66 73 78 83 87 87 80 63 52 43 32 25 17 10 7 6 6 6 7 8 10 11 12
19 20 20 22 26 30 32 34 36 40 46 49 50 54 58 60 61 63 67 75 82 87 90 90 79 59 47 37 26 19 10 6 5 4 6 9 9 9 8 8 9 13 18
18 19 20 22 22 25 31 39 49 55 52 52 58 63 65 67 69 76 86 92 93 88 72 58 49 38 26 15 8 6 4 4 7 10 10 10 8 8 12 18 22 29 32
25 22 20 22 25 29 35 46 57 56 59 66 69 71 73 77 87 95 94 80 65 60 50 38 25 14 8 6 5 4 9 11 12 12 10 9 9 10 12 17 27 46 62
30 27 26 27 31 39 50 60 61 66 71 74 76 78 84 94 96 82 67 60 49 39 27 16 9 7 6 4 8 12 12 13 12 11 11 10 11 14 21 30 46 62 75
33 30 30 32 37 46 56 64 71 75 78 80 84 92 100 94 74 63 52 41 31 20 11 7 6 6 5 10 14 14 14 15 14 13 12 13 14 19 33 45 59 75 80
36 44 48 51 53 63 70 75 79 82 86 91 100 100 86 75 62 48 36 28 14 9 7 6 5 4 11 17 16 16 18 18 16 15 15 19 22 31 45 54 61 69 77
60 64 63 64 68 71 75 81 86 92 100 100 99 88 73 60 44 36 20 11 9 7 6 5 5 10 18 18 20 23 23 20 18 17 18 24 30 36 46 57 72 83 82
69 67 67 69 69 69 76 85 95 100 100 98 87 76 59 44 30 17 12 9 8 7 6 5 11 21 20 22 27 29 26 23 22 20 22 26 30 36 47 60 66 69 71
70 72 71 67 66 71 86 100 100 99 92 88 83 60 42 27 16 12 10 10 8 8 7 9 24 23 22 30 33 33 29 28 27 25 27 33 38 44 55 60 66 68 68
78 77 77 77 87 100 100 100 89 88 87 81 59 40 26 16 14 11 11 11 10 8 7 20 30 23 26 36 39 37 34 34 33 32 34 41 47 55 61 68 72 75 76
88 86 81 82 93 92 79 79 80 80 73 53 34 24 16 14 12 12 12 11 8 6 11 33 29 24 33 40 42 41 40 40 40 38 40 46 55 63 71 74 77 79 80
95 95 99 100 100 96 95 86 77 64 44 32 22 17 15 14 14 14 11 8 8 8 25 36 27 33 42 45 45 45 46 48 48 49 52 59 65 68 68 69 77 80 83
96 100 100 99 96 96 90 75 58 40 29 20 18 16 16 18 17 15 13 11 9 16 40 35 37 49 52 51 52 53 56 58 60 62 64 68 69 63 59 77 78 82 86
Wind_Speed
17 15 14 11 11 13 16 17 15 17 16 15 16 16 16 17 17 15 15 15 15 15 14 13 13 13 14 14 15 16 18 19 19 18 18 18 18 19 20 20 21 21 21
20 17 16 12 13 15 16 19 17 20 19 18 18 19 18 19 17 16 16 16 16 15 15 14 14 15 15 15 17 18 20 20 20 21 21 21 22 22 22 23 24 22 23
30 22 20 21 18 18 16 17 23 23 21 20 21 21 20 19 18 18 18 17 16 16 16 16 16 16 16 18 19 21 22 23 24 24 25 25 25 25 25 26 27 27 27
29 39 43 35 24 20 22 23 26 24 23 23 23 22 21 19 19 19 18 18 17 17 17 18 18 18 19 20 22 23 24 26 27 27 27 27 28 29 29 27 29 30 31
37 38 32 28 30 28 25 27 28 26 26 25 25 24 22 21 20 19 18 18 18 19 19 19 19 20 21 23 24 26 28 29 30 29 28 29 29 31 34 32 29 31 31
36 37 40 37 34 31 30 28 29 29 28 26 26 26 23 21 20 19 18 19 20 20 20 20 21 23 24 26 28 30 31 31 30 30 30 30 31 33 36 40 38 39 34
34 37 36 35 36 33 30 28 28 29 28 27 27 25 23 22 20 20 21 21 21 20 21 22 24 26 27 29 31 32 31 30 30 31 31 32 34 37 39 43 46 48 47
38 36 37 37 36 34 31 29 28 28 28 27 26 25 23 22 21 22 22 21 20 20 23 25 27 28 30 32 32 31 31 31 32 34 36 37 38 41 43 45 48 53 54
34 33 33 33 33 32 30 27 27 27 27 26 24 23 23 22 22 22 21 21 21 23 26 27 29 31 33 33 32 32 34 36 38 40 42 44 44 45 45 46 48 51 59
30 29 28 27 27 27 26 25 25 26 24 23 23 23 22 22 21 21 21 23 25 27 28 30 32 33 33 33 34 36 39 41 43 45 45 46 46 46 46 47 48 49 53
24 22 21 21 23 24 23 22 22 21 21 22 22 21 21 20 21 22 24 26 27 29 30 32 32 32 34 37 39 42 44 45 45 46 48 49 49 50 51 51 52 54 54
21 22 21 21 21 21 20 19 19 20 20 20 19 19 20 22 23 25 25 27 29 30 31 31 33 36 40 42 43 45 45 47 48 48 48 50 52 53 54 56 57 57 56
17 18 19 19 18 17 18 19 19 19 19 19 20 22 22 23 24 25 27 28 29 30 32 35 39 41 43 43 44 46 47 47 49 51 52 53 54 55 56 56 58 58 58
13 13 13 15 17 18 18 19 19 20 20 21 21 21 22 23 24 26 27 29 31 34 37 40 41 42 43 44 45 47 49 49 50 50 49 50 51 53 55 56 57 57 57
13 15 18 18 18 19 19 20 20 20 20 20 21 21 22 24 26 27 29 31 34 37 39 39 40 41 43 45 47 49 50 49 47 46 47 49 50 51 51 51 52 51 51
17 19 20 20 20 20 20 20 20 20 20 20 21 22 24 25 26 28 31 34 36 36 38 39 41 43 44 45 46 46 46 44 46 48 49 49 51 52 51 49 43 41 43
17 19 20 21 22 21 20 19 19 19 20 21 23 24 26 27 29 32 33 34 36 37 38 40 43 43 43 44 43 42 42 44 46 48 49 49 48 46 43 39 34 32 32
18 18 20 20 19 19 18 19 19 20 21 23 25 26 27 30 31 33 34 36 37 38 40 41 41 42 42 41 40 41 42 44 44 45 46 44 42 38 34 32 30 30 29
19 19 18 17 17 17 17 18 20 22 23 25 26 28 30 31 32 33 34 36 37 38 39 40 41 41 39 38 40 41 42 42 42 42 41 37 35 33 31 30 31 31 30
14 13 13 13 14 15 17 20 22 23 25 27 27 29 30 32 33 33 34 37 38 38 39 41 41 39 37 37 39 40 41 41 40 39 36 33 32 32 31 31 31 33 33
11 10 10 12 16 19 21 23 24 24 26 28 29 30 30 31 33 35 38 39 38 39 40 41 38 37 36 37 38 39 40 39 38 37 36 34 32 31 31 31 33 36 36
11 11 14 17 20 22 23 23 26 28 27 27 27 29 31 33 35 37 37 36 37 39 40 39 36 35 35 36 37 37 37 36 37 37 36 34 33 32 33 34 35 37 39
15 15 16 19 21 22 23 27 25 26 26 28 30 31 32 34 37 37 36 36 38 40 40 38 36 35 34 35 35 35 34 34 36 36 35 34 33 33 35 36 38 38 37
17 18 19 22 23 24 23 24 25 25 27 28 29 31 34 36 36 35 36 38 39 40 39 37 36 34 34 35 34 33 33 33 34 35 34 34 35 37 38 37 35 34 33
19 19 19 21 23 23 23 23 25 26 26 28 31 34 36 35 35 35 36 37 39 40 38 36 34 34 35 35 35 34 33 33 35 35 34 35 36 35 34 36 35 32 30
21 21 20 23 24 22 24 25 25 26 28 31 34 35 34 34 35 36 37 38 39 38 35 34 33 33 34 34 34 33 32 33 33 33 34 34 34 34 35 35 34 31 29
Wind_Direction
228 241 236 251 267 277 270 263 258 263 266 268 273 281 289 293 298 300 290 283 279 279 282 285 288 291 294 299 305 312 315 316 316 313 309 305 301 299 299 298 297 294 292
216 236 258 262 272 269 260 267 269 265 268 270 274 279 286 293 298 294 284 277 277 278 279 280 281 284 290 293 300 307 311 312 310 307 304 299 295 293 292 290 290 288 286
245 255 281 267 261 264 261 264 262 262 267 269 272 277 284 291 293 286 280 275 274 275 274 275 277 282 285 293 301 306 308 308 307 304 301 299 294 290 289 289 289 290 289
233 246 268 268 253 250 255 261 262 265 267 268 269 274 281 287 285 282 276 273 272 271 269 271 276 280 287 293 298 303 304 304 302 300 298 295 294 293 289 287 287 286 287
241 250 252 234 249 248 257 260 262 261 262 264 267 271 276 280 280 276 271 269 268 266 267 271 275 281 287 292 297 299 301 301 300 298 297 296 295 294 293 290 285 285 286
236 241 239 243 243 251 256 259 261 258 260 261 264 269 276 279 279 273 270 267 264 265 268 273 278 284 288 292 295 298 299 299 298 297 297 297 297 296 296 295 293 288 283
233 235 236 245 251 255 259 259 258 256 257 258 262 269 275 276 273 265 261 260 262 266 271 278 282 286 290 292 294 296 296 296 296 297 297 297 296 295 294 294 294 294 291
235 242 247 252 256 258 258 261 256 252 253 255 260 266 271 271 266 264 264 264 267 270 275 279 284 287 288 290 292 292 292 293 293 293 294 294 294 294 293 292 293 292 291
233 244 250 251 251 255 259 255 248 247 250 254 260 264 266 265 265 264 266 268 271 274 278 280 283 285 288 290 290 291 292 294 294 294 294 293 291 289 289 289 290 291 293
237 240 242 245 248 249 249 248 245 243 246 254 258 262 263 264 266 269 272 274 276 278 280 283 285 287 289 290 291 292 292 292 292 292 291 289 289 288 287 287 287 287 288
241 244 240 241 245 246 244 241 241 245 248 253 257 261 265 267 269 270 272 274 277 281 283 284 286 287 288 290 292 292 292 293 293 292 291 292 292 291 291 291 289 287 286
243 243 241 239 238 238 239 239 240 245 251 257 261 262 264 265 267 270 274 277 279 281 283 285 287 289 291 293 294 294 295 295 294 294 294 295 295 294 293 291 289 287 285
236 235 235 235 236 237 239 242 247 254 259 258 258 259 263 267 270 273 275 278 281 284 287 289 290 291 292 293 295 295 295 295 297 298 298 298 296 295 294 292 290 288 286
243 242 244 244 244 247 251 254 255 253 253 255 261 265 267 268 271 275 279 282 285 287 288 289 290 292 295 296 296 296 297 298 298 298 297 297 297 297 295 294 292 289 286
260 263 257 253 250 251 252 252 252 253 257 260 262 263 267 272 276 280 283 286 288 288 289 290 292 293 295 297 299 299 300 301 301 301 301 301 301 301 300 299 297 292 288
265 262 253 251 254 254 254 254 254 256 258 259 262 267 272 277 281 284 286 289 288 290 291 293 295 297 299 300 302 302 303 304 306 307 308 309 309 308 307 305 301 291 288
260 255 252 253 260 258 254 254 256 257 260 264 269 274 277 281 285 288 288 289 290 291 294 296 299 301 303 304 304 304 304 307 310 312 312 311 311 313 313 311 309 305 300
261 258 260 260 258 256 254 253 255 258 263 268 272 276 281 287 289 290 290 291 293 297 300 302 303 304 306 305 304 304 308 311 313 313 313 313 313 313 314 314 311 309 309
262 259 253 249 246 244 246 250 255 261 268 273 278 283 287 289 289 290 291 295 298 302 303 305 306 307 306 305 306 307 310 312 313 313 312 312 313 312 312 313 311 308 309
253 247 242 237 237 247 255 259 264 269 273 277 282 287 289 289 290 292 295 301 304 306 307 308 307 307 306 306 306 308 310 312 311 311 311 312 310 309 307 307 305 305 307
232 217 230 250 259 263 264 267 271 276 279 283 286 287 289 290 293 300 305 306 305 305 309 309 307 304 306 307 307 308 310 310 310 311 311 312 309 308 306 304 303 303 304
227 251 266 271 270 268 267 269 272 279 283 284 287 289 290 294 299 303 302 301 303 306 309 308 306 306 306 306 306 308 309 309 310 309 309 308 307 308 308 307 304 302 299
254 265 273 273 265 264 260 271 281 285 285 285 286 289 294 298 301 302 302 303 305 308 310 308 304 303 304 305 305 307 308 307 305 304 304 304 307 307 308 308 307 305 303
270 274 275 272 267 272 275 277 277 279 282 285 289 294 298 301 303 303 304 305 308 309 308 304 301 302 304 305 307 308 305 303 302 301 303 308 309 310 311 309 307 305 303
272 271 266 262 264 273 277 278 279 280 284 289 293 298 301 302 302 302 303 305 308 308 305 302 302 305 307 308 308 308 307 306 306 305 307 306 307 307 309 311 310 308 305
274 269 257 256 267 270 275 277 281 285 288 294 299 301 301 301 301 301 302 304 307 307 304 303 304 305 306 306 307 308 307 306 307 306 307 308 308 309 313 314 312 310 309